QPF
0.01 0.01 0.01 0.01 0.00 0.00 0.01 0.01 0.01 0.01 0.01 0.01 0.01 0.01 0.01 0.01 0.02 0.02 0.02 0.02 0.01 0.01 0.01 0.01 0.02 0.02 0.01 0.02 0.02 0.01 0.01 0.01 0.01 0.02 0.01 0.01 0.01 0.01 0.02 0.01 0.02 0.02 0.03 0.03
0.01 0.01 0.01 0.01 0.01 0.00 0.00 0.01 0.01 0.01 0.01 0.01 0.01 0.01 0.01 0.01 0.01 0.02 0.02 0.02 0.02 0.02 0.01 0.01 0.01 0.01 0.00 0.01 0.01 0.01 0.01 0.01 0.01 0.01 0.01 0.01 0.01 0.01 0.01 0.02 0.02 0.02 0.02 0.03
0.01 0.01 0.01 0.02 0.01 0.00 0.01 0.01 0.01 0.01 0.00 0.00 0.00 0.01 0.01 0.01 0.01 0.02 0.02 0.02 0.02 0.02 0.02 0.01 0.01 0.01 0.01 0.01 0.01 0.01 0.01 0.01 0.01 0.01 0.01 0.01 0.01 0.01 0.01 0.02 0.03 0.03 0.03 0.03
0.02 0.01 0.02 0.01 0.01 0.01 0.01 0.01 0.01 0.01 0.01 0.01 0.01 0.01 0.01 0.01 0.01 0.01 0.01 0.01 0.02 0.02 0.02 0.02 0.02 0.01 0.01 0.01 0.01 0.01 0.01 0.01 0.01 0.01 0.01 0.01 0.01 0.01 0.01 0.02 0.03 0.04 0.04 0.03
0.02 0.01 0.01 0.00 0.01 0.01 0.01 0.01 0.01 0.00 0.00 0.00 0.00 0.01 0.01 0.01 0.01 0.02 0.02 0.01 0.01 0.02 0.02 0.02 0.02 0.02 0.02 0.01 0.01 0.01 0.01 0.01 0.01 0.01 0.01 0.01 0.01 0.01 0.01 0.02 0.02 0.03 0.04 0.04
0.02 0.01 0.01 0.00 0.00 0.01 0.01 0.01 0.00 0.00 0.00 0.00 0.00 0.00 0.01 0.01 0.01 0.02 0.02 0.01 0.01 0.01 0.02 0.02 0.02 0.02 0.02 0.02 0.02 0.01 0.02 0.02 0.01 0.01 0.01 0.01 0.01 0.01 0.02 0.02 0.02 0.02 0.03 0.04
0.02 0.02 0.01 0.00 0.00 0.01 0.01 0.01 0.01 0.00 0.00 0.00 0.00 0.01 0.01 0.01 0.01 0.01 0.01 0.01 0.01 0.01 0.01 0.02 0.02 0.02 0.02 0.03 0.03 0.03 0.02 0.02 0.01 0.01 0.01 0.01 0.02 0.02 0.02 0.02 0.02 0.02 0.03 0.04
0.01 0.02 0.01 0.00 0.01 0.01 0.02 0.01 0.01 0.01 0.00 0.00 0.00 0.00 0.01 0.01 0.01 0.01 0.01 0.01 0.01 0.01 0.01 0.01 0.01 0.01 0.02 0.02 0.02 0.03 0.03 0.02 0.02 0.01 0.01 0.01 0.02 0.02 0.02 0.03 0.03 0.03 0.03 0.03
0.01 0.01 0.01 0.01 0.01 0.01 0.01 0.01 0.01 0.01 0.01 0.01 0.01 0.01 0.01 0.01 0.01 0.01 0.01 0.01 0.01 0.01 0.01 0.01 0.01 0.01 0.01 0.02 0.02 0.02 0.02 0.02 0.03 0.02 0.02 0.02 0.03 0.03 0.03 0.03 0.03 0.03 0.03 0.03
0.01 0.01 0.01 0.01 0.01 0.01 0.01 0.01 0.01 0.01 0.01 0.01 0.01 0.01 0.01 0.01 0.01 0.01 0.01 0.01 0.01 0.01 0.01 0.01 0.01 0.01 0.01 0.01 0.01 0.01 0.01 0.01 0.02 0.02 0.03 0.03 0.03 0.03 0.03 0.03 0.02 0.02 0.03 0.03
0.01 0.01 0.01 0.01 0.01 0.01 0.01 0.01 0.01 0.01 0.01 0.01 0.01 0.01 0.01 0.01 0.01 0.01 0.01 0.01 0.01 0.01 0.01 0.01 0.01 0.01 0.01 0.01 0.01 0.01 0.01 0.01 0.01 0.02 0.02 0.03 0.03 0.04 0.04 0.04 0.03 0.02 0.02 0.02
0.01 0.01 0.01 0.01 0.01 0.01 0.01 0.01 0.01 0.01 0.01 0.01 0.01 0.01 0.01 0.01 0.01 0.01 0.01 0.01 0.01 0.01 0.01 0.01 0.01 0.01 0.01 0.01 0.01 0.01 0.01 0.01 0.01 0.01 0.02 0.02 0.03 0.04 0.04 0.04 0.04 0.03 0.03 0.03
0.01 0.01 0.01 0.01 0.00 0.01 0.01 0.01 0.01 0.01 0.01 0.01 0.01 0.01 0.01 0.01 0.01 0.01 0.01 0.01 0.01 0.01 0.01 0.01 0.01 0.01 0.01 0.01 0.01 0.01 0.01 0.01 0.01 0.01 0.01 0.02 0.02 0.02 0.02 0.03 0.03 0.03 0.03 0.03
0.01 0.01 0.01 0.01 0.01 0.01 0.01 0.01 0.01 0.01 0.01 0.01 0.01 0.01 0.01 0.01 0.01 0.01 0.01 0.01 0.01 0.01 0.01 0.01 0.01 0.01 0.01 0.01 0.01 0.01 0.01 0.01 0.01 0.01 0.01 0.01 0.01 0.02 0.02 0.02 0.02 0.02 0.03 0.03
0.01 0.01 0.01 0.01 0.01 0.01 0.01 0.01 0.01 0.01 0.01 0.01 0.01 0.01 0.01 0.01 0.01 0.01 0.01 0.01 0.01 0.01 0.01 0.01 0.01 0.01 0.01 0.01 0.01 0.01 0.01 0.01 0.01 0.01 0.01 0.01 0.01 0.02 0.02 0.02 0.02 0.02 0.02 0.02
0.01 0.01 0.01 0.01 0.01 0.00 0.00 0.00 0.01 0.01 0.01 0.00 0.00 0.01 0.01 0.01 0.01 0.01 0.01 0.01 0.01 0.01 0.01 0.01 0.01 0.01 0.01 0.01 0.01 0.01 0.01 0.01 0.01 0.01 0.01 0.01 0.01 0.01 0.02 0.02 0.02 0.02 0.02 0.02
0.01 0.01 0.01 0.00 0.00 0.00 0.01 0.01 0.01 0.01 0.01 0.00 0.01 0.01 0.01 0.01 0.01 0.01 0.01 0.01 0.01 0.01 0.01 0.00 0.01 0.01 0.01 0.01 0.01 0.01 0.01 0.01 0.01 0.01 0.01 0.01 0.01 0.01 0.01 0.01 0.02 0.01 0.02 0.02
0.01 0.01 0.01 0.01 0.01 0.01 0.01 0.01 0.01 0.01 0.01 0.01 0.01 0.01 0.01 0.01 0.01 0.01 0.01 0.01 0.01 0.00 0.00 0.00 0.00 0.00 0.00 0.01 0.01 0.01 0.01 0.01 0.01 0.01 0.01 0.01 0.01 0.01 0.01 0.01 0.01 0.01 0.01 0.01
0.01 0.01 0.01 0.01 0.01 0.01 0.01 0.01 0.01 0.01 0.01 0.01 0.01 0.01 0.01 0.01 0.01 0.01 0.01 0.01 0.00 0.00 0.01 0.01 0.01 0.01 0.01 0.01 0.01 0.01 0.01 0.01 0.01 0.01 0.01 0.01 0.01 0.01 0.01 0.01 0.01 0.01 0.01 0.01
0.01 0.01 0.01 0.01 0.01 0.01 0.01 0.01 0.01 0.01 0.01 0.01 0.01 0.01 0.01 0.01 0.01 0.01 0.01 0.01 0.01 0.01 0.01 0.01 0.01 0.00 0.00 0.01 0.01 0.01 0.01 0.01 0.01 0.01 0.01 0.01 0.01 0.01 0.01 0.01 0.01 0.01 0.01 0.01
0.01 0.01 0.01 0.01 0.01 0.01 0.01 0.01 0.01 0.01 0.01 0.01 0.01 0.01 0.01 0.01 0.01 0.01 0.01 0.01 0.01 0.01 0.01 0.01 0.00 0.00 0.00 0.01 0.01 0.01 0.01 0.01 0.01 0.01 0.01 0.01 0.01 0.01 0.01 0.01 0.01 0.01 0.01 0.01
0.01 0.01 0.01 0.01 0.01 0.01 0.01 0.01 0.01 0.01 0.01 0.01 0.01 0.01 0.01 0.01 0.01 0.01 0.01 0.01 0.01 0.01 0.01 0.00 0.00 0.01 0.01 0.01 0.01 0.01 0.01 0.01 0.00 0.00 0.01 0.01 0.01 0.01 0.01 0.01 0.01 0.01 0.01 0.01
0.01 0.01 0.01 0.01 0.01 0.01 0.01 0.01 0.01 0.01 0.01 0.01 0.01 0.01 0.01 0.01 0.01 0.01 0.01 0.01 0.01 0.01 0.01 0.01 0.01 0.02 0.02 0.01 0.01 0.01 0.01 0.01 0.01 0.01 0.01 0.01 0.01 0.01 0.01 0.01 0.01 0.01 0.01 0.01
0.01 0.01 0.01 0.01 0.01 0.01 0.01 0.01 0.01 0.01 0.01 0.01 0.01 0.01 0.01 0.01 0.01 0.00 0.00 0.00 0.01 0.01 0.01 0.01 0.01 0.02 0.02 0.01 0.01 0.01 0.01 0.01 0.01 0.01 0.01 0.01 0.01 0.01 0.01 0.01 0.01 0.01 0.01 0.01
0.01 0.01 0.01 0.01 0.01 0.01 0.01 0.01 0.01 0.01 0.01 0.01 0.01 0.01 0.00 0.00 0.01 0.01 0.01 0.01 0.01 0.01 0.01 0.01 0.01 0.01 0.01 0.01 0.01 0.01 0.01 0.01 0.01 0.01 0.01 0.01 0.01 0.01 0.01 0.01 0.02 0.01 0.01 0.01
0.01 0.01 0.01 0.01 0.01 0.01 0.01 0.01 0.01 0.01 0.00 0.00 0.00 0.00 0.00 0.00 0.01 0.01 0.01 0.01 0.01 0.01 0.01 0.01 0.01 0.01 0.01 0.01 0.01 0.01 0.01 0.01 0.02 0.02 0.01 0.01 0.01 0.01 0.01 0.01 0.01 0.01 0.01 0.01
0.01 0.01 0.01 0.01 0.01 0.01 0.01 0.01 0.01 0.01 0.01 0.01 0.01 0.00 0.01 0.01 0.01 0.01 0.01 0.01 0.01 0.01 0.01 0.01 0.01 0.01 0.01 0.01 0.02 0.02 0.02 0.02 0.02 0.02 0.02 0.01 0.01 0.01 0.01 0.01 0.01 0.01 0.01 0.01
MSLP
1020.74 1021.05 1021.54 1022.13 1022.74 1023.25 1023.59 1023.71 1023.59 1023.24 1022.72 1022.07 1021.36 1020.64 1019.92 1019.21 1018.46 1017.63 1016.65 1015.49 1014.09 1012.47 1010.66 1008.73 1006.75 1004.83 1003.08 1001.59 1000.41 999.59 999.11 998.95 999.04 999.33 999.73 1000.18 1000.62 1001.01 1001.35 1001.63 1001.89 1002.16 1002.47 1002.86
1021.62 1021.92 1022.43 1023.06 1023.73 1024.31 1024.73 1024.89 1024.79 1024.40 1023.79 1022.99 1022.09 1021.15 1020.21 1019.30 1018.40 1017.48 1016.48 1015.35 1014.05 1012.56 1010.90 1009.09 1007.22 1005.36 1003.63 1002.10 1000.85 999.92 999.33 999.05 999.03 999.22 999.54 999.92 1000.29 1000.63 1000.90 1001.13 1001.32 1001.52 1001.76 1002.08
1022.56 1022.82 1023.28 1023.87 1024.52 1025.09 1025.50 1025.66 1025.53 1025.10 1024.40 1023.50 1022.46 1021.38 1020.30 1019.26 1018.26 1017.29 1016.30 1015.23 1014.03 1012.66 1011.12 1009.44 1007.66 1005.87 1004.16 1002.61 1001.31 1000.31 999.63 999.26 999.15 999.27 999.52 999.85 1000.18 1000.48 1000.72 1000.91 1001.06 1001.20 1001.38 1001.63
1023.53 1023.71 1024.08 1024.59 1025.15 1025.65 1026.01 1026.12 1025.96 1025.49 1024.75 1023.79 1022.68 1021.52 1020.36 1019.25 1018.21 1017.22 1016.23 1015.20 1014.07 1012.79 1011.35 1009.76 1008.06 1006.33 1004.64 1003.10 1001.77 1000.73 1000.00 999.57 999.42 999.50 999.72 1000.03 1000.35 1000.64 1000.87 1001.04 1001.16 1001.27 1001.41 1001.61
1024.51 1024.60 1024.87 1025.26 1025.71 1026.12 1026.40 1026.47 1026.26 1025.77 1025.02 1024.04 1022.91 1021.72 1020.53 1019.39 1018.32 1017.31 1016.32 1015.30 1014.20 1012.97 1011.58 1010.05 1008.41 1006.73 1005.08 1003.56 1002.24 1001.20 1000.46 1000.03 999.87 999.94 1000.17 1000.49 1000.83 1001.13 1001.37 1001.55 1001.66 1001.76 1001.88 1002.05
1025.49 1025.51 1025.67 1025.95 1026.29 1026.61 1026.81 1026.82 1026.58 1026.08 1025.33 1024.37 1023.25 1022.06 1020.86 1019.71 1018.61 1017.57 1016.56 1015.52 1014.41 1013.19 1011.82 1010.33 1008.74 1007.10 1005.50 1004.03 1002.77 1001.77 1001.06 1000.66 1000.53 1000.63 1000.89 1001.24 1001.60 1001.94 1002.21 1002.40 1002.54 1002.64 1002.75 1002.91
1026.46 1026.43 1026.51 1026.70 1026.93 1027.15 1027.27 1027.23 1026.97 1026.47 1025.74 1024.80 1023.71 1022.54 1021.35 1020.18 1019.06 1017.98 1016.92 1015.85 1014.71 1013.47 1012.11 1010.65 1009.10 1007.52 1006.00 1004.61 1003.42 1002.49 1001.85 1001.50 1001.42 1001.56 1001.86 1002.25 1002.65 1003.02 1003.32 1003.55 1003.71 1003.84 1003.96 1004.13
1027.41 1027.34 1027.36 1027.47 1027.62 1027.76 1027.81 1027.72 1027.43 1026.93 1026.21 1025.30 1024.24 1023.10 1021.92 1020.75 1019.61 1018.49 1017.39 1016.28 1015.11 1013.86 1012.51 1011.08 1009.58 1008.09 1006.65 1005.36 1004.26 1003.42 1002.86 1002.58 1002.56 1002.74 1003.07 1003.48 1003.90 1004.30 1004.63 1004.90 1005.10 1005.25 1005.41 1005.59
1028.28 1028.19 1028.17 1028.22 1028.30 1028.36 1028.35 1028.21 1027.90 1027.39 1026.69 1025.81 1024.79 1023.68 1022.53 1021.37 1020.22 1019.09 1017.97 1016.83 1015.65 1014.41 1013.09 1011.70 1010.29 1008.89 1007.56 1006.37 1005.38 1004.63 1004.14 1003.91 1003.91 1004.11 1004.45 1004.87 1005.30 1005.70 1006.06 1006.35 1006.58 1006.78 1006.98 1007.20
1029.01 1028.92 1028.88 1028.89 1028.91 1028.91 1028.84 1028.65 1028.31 1027.80 1027.12 1026.28 1025.30 1024.24 1023.13 1022.01 1020.89 1019.78 1018.67 1017.54 1016.38 1015.18 1013.91 1012.60 1011.28 1009.98 1008.76 1007.68 1006.78 1006.10 1005.66 1005.45 1005.46 1005.65 1005.96 1006.35 1006.76 1007.16 1007.52 1007.83 1008.10 1008.34 1008.58 1008.85
1029.58 1029.50 1029.44 1029.42 1029.39 1029.33 1029.21 1028.99 1028.63 1028.12 1027.47 1026.67 1025.76 1024.77 1023.74 1022.68 1021.62 1020.57 1019.51 1018.45 1017.35 1016.21 1015.02 1013.81 1012.58 1011.39 1010.27 1009.27 1008.44 1007.80 1007.38 1007.16 1007.14 1007.28 1007.54 1007.88 1008.25 1008.62 1008.97 1009.30 1009.60 1009.89 1010.18 1010.50
1029.96 1029.90 1029.84 1029.79 1029.73 1029.64 1029.48 1029.23 1028.86 1028.37 1027.76 1027.03 1026.20 1025.31 1024.38 1023.43 1022.47 1021.51 1020.54 1019.56 1018.55 1017.50 1016.41 1015.29 1014.16 1013.06 1012.02 1011.09 1010.30 1009.67 1009.23 1008.98 1008.90 1008.97 1009.15 1009.42 1009.74 1010.08 1010.42 1010.75 1011.09 1011.42 1011.77 1012.14
1030.20 1030.17 1030.12 1030.07 1029.99 1029.86 1029.69 1029.43 1029.07 1028.62 1028.06 1027.41 1026.69 1025.92 1025.11 1024.28 1023.44 1022.60 1021.74 1020.86 1019.94 1018.98 1017.99 1016.96 1015.92 1014.89 1013.91 1013.02 1012.24 1011.61 1011.14 1010.84 1010.69 1010.67 1010.78 1010.98 1011.25 1011.55 1011.89 1012.24 1012.60 1012.98 1013.38 1013.80
1030.37 1030.37 1030.35 1030.30 1030.22 1030.10 1029.91 1029.66 1029.34 1028.93 1028.45 1027.90 1027.29 1026.64 1025.96 1025.26 1024.55 1023.82 1023.07 1022.28 1021.45 1020.58 1019.66 1018.70 1017.73 1016.76 1015.82 1014.96 1014.19 1013.55 1013.05 1012.69 1012.48 1012.40 1012.45 1012.59 1012.82 1013.10 1013.44 1013.80 1014.20 1014.62 1015.06 1015.52
1030.54 1030.59 1030.61 1030.58 1030.52 1030.41 1030.24 1030.02 1029.74 1029.39 1028.99 1028.53 1028.03 1027.50 1026.94 1026.35 1025.75 1025.11 1024.45 1023.74 1022.98 1022.17 1021.30 1020.40 1019.48 1018.56 1017.66 1016.83 1016.07 1015.43 1014.91 1014.53 1014.28 1014.16 1014.17 1014.29 1014.50 1014.78 1015.12 1015.50 1015.93 1016.37 1016.84 1017.32
1030.78 1030.88 1030.94 1030.96 1030.93 1030.84 1030.71 1030.53 1030.29 1030.01 1029.68 1029.31 1028.90 1028.46 1027.99 1027.50 1026.97 1026.40 1025.79 1025.13 1024.42 1023.65 1022.83 1021.97 1021.10 1020.22 1019.37 1018.58 1017.86 1017.24 1016.74 1016.36 1016.11 1015.99 1015.99 1016.11 1016.31 1016.60 1016.95 1017.36 1017.80 1018.26 1018.74 1019.22
1031.09 1031.26 1031.38 1031.44 1031.45 1031.40 1031.30 1031.16 1030.97 1030.74 1030.47 1030.17 1029.83 1029.46 1029.06 1028.62 1028.13 1027.60 1027.02 1026.39 1025.70 1024.96 1024.18 1023.36 1022.54 1021.72 1020.94 1020.21 1019.56 1019.00 1018.55 1018.21 1018.00 1017.90 1017.92 1018.05 1018.27 1018.57 1018.93 1019.34 1019.78 1020.24 1020.71 1021.17
1031.46 1031.70 1031.87 1031.98 1032.03 1032.02 1031.95 1031.84 1031.69 1031.50 1031.27 1031.02 1030.72 1030.40 1030.03 1029.62 1029.16 1028.65 1028.08 1027.46 1026.80 1026.09 1025.35 1024.59 1023.84 1023.10 1022.41 1021.78 1021.22 1020.74 1020.37 1020.11 1019.95 1019.90 1019.95 1020.09 1020.32 1020.62 1020.97 1021.37 1021.80 1022.23 1022.67 1023.09
1031.86 1032.14 1032.36 1032.50 1032.58 1032.59 1032.54 1032.46 1032.33 1032.17 1031.97 1031.75 1031.48 1031.18 1030.84 1030.44 1030.00 1029.50 1028.96 1028.36 1027.72 1027.06 1026.38 1025.70 1025.04 1024.41 1023.83 1023.31 1022.86 1022.50 1022.22 1022.04 1021.94 1021.93 1022.01 1022.16 1022.38 1022.66 1022.99 1023.36 1023.74 1024.14 1024.53 1024.90
1032.20 1032.52 1032.75 1032.91 1032.99 1033.01 1032.98 1032.90 1032.79 1032.64 1032.47 1032.27 1032.03 1031.76 1031.44 1031.07 1030.65 1030.18 1029.67 1029.12 1028.54 1027.94 1027.34 1026.76 1026.21 1025.70 1025.24 1024.84 1024.51 1024.26 1024.07 1023.96 1023.91 1023.93 1024.01 1024.16 1024.35 1024.59 1024.87 1025.18 1025.51 1025.84 1026.18 1026.50
1032.45 1032.76 1032.99 1033.13 1033.21 1033.22 1033.18 1033.10 1033.00 1032.87 1032.72 1032.55 1032.35 1032.11 1031.83 1031.51 1031.14 1030.73 1030.27 1029.78 1029.28 1028.77 1028.27 1027.80 1027.37 1026.98 1026.64 1026.36 1026.14 1025.97 1025.85 1025.79 1025.77 1025.80 1025.86 1025.97 1026.12 1026.30 1026.51 1026.75 1027.01 1027.28 1027.56 1027.83
1032.58 1032.86 1033.04 1033.15 1033.19 1033.18 1033.13 1033.05 1032.96 1032.86 1032.74 1032.61 1032.46 1032.28 1032.07 1031.81 1031.51 1031.17 1030.80 1030.40 1029.99 1029.58 1029.19 1028.82 1028.50 1028.22 1027.98 1027.80 1027.66 1027.55 1027.48 1027.44 1027.42 1027.43 1027.47 1027.53 1027.61 1027.72 1027.86 1028.03 1028.22 1028.43 1028.65 1028.87
1032.59 1032.80 1032.93 1032.98 1032.98 1032.94 1032.87 1032.80 1032.72 1032.65 1032.58 1032.51 1032.43 1032.32 1032.19 1032.02 1031.81 1031.56 1031.28 1030.97 1030.66 1030.35 1030.05 1029.78 1029.54 1029.35 1029.19 1029.07 1028.97 1028.91 1028.86 1028.82 1028.79 1028.77 1028.76 1028.76 1028.79 1028.83 1028.91 1029.01 1029.14 1029.30 1029.47 1029.66
1032.51 1032.63 1032.68 1032.67 1032.62 1032.55 1032.48 1032.41 1032.37 1032.34 1032.33 1032.32 1032.32 1032.29 1032.25 1032.17 1032.04 1031.89 1031.69 1031.47 1031.24 1031.01 1030.79 1030.59 1030.42 1030.27 1030.16 1030.07 1030.01 1029.95 1029.90 1029.86 1029.81 1029.77 1029.72 1029.69 1029.66 1029.66 1029.69 1029.74 1029.82 1029.94 1030.07 1030.23
1032.36 1032.39 1032.37 1032.30 1032.21 1032.12 1032.04 1032.00 1031.98 1032.00 1032.05 1032.12 1032.18 1032.24 1032.27 1032.27 1032.22 1032.14 1032.02 1031.86 1031.69 1031.51 1031.34 1031.17 1031.03 1030.92 1030.82 1030.75 1030.70 1030.65 1030.60 1030.55 1030.50 1030.44 1030.38 1030.33 1030.28 1030.26 1030.25 1030.28 1030.33 1030.41 1030.52 1030.64
1032.15 1032.11 1032.02 1031.91 1031.80 1031.70 1031.64 1031.62 1031.65 1031.72 1031.82 1031.94 1032.07 1032.18 1032.27 1032.32 1032.33 1032.29 1032.21 1032.09 1031.94 1031.79 1031.63 1031.48 1031.35 1031.25 1031.16 1031.10 1031.05 1031.01 1030.97 1030.93 1030.89 1030.84 1030.79 1030.75 1030.71 1030.68 1030.67 1030.68 1030.71 1030.76 1030.83 1030.91
1031.89 1031.80 1031.68 1031.55 1031.44 1031.36 1031.32 1031.33 1031.40 1031.50 1031.65 1031.81 1031.97 1032.11 1032.23 1032.30 1032.32 1032.30 1032.23 1032.11 1031.98 1031.82 1031.66 1031.52 1031.39 1031.29 1031.21 1031.15 1031.11 1031.09 1031.08 1031.07 1031.06 1031.05 1031.03 1031.01 1030.99 1030.97 1030.96 1030.96 1030.97 1030.99 1031.01 1031.04
Thickness
5341 5340 5337 5336 5335 5330 5329 5342 5347 5356 5351 5356 5349 5345 5345 5343 5342 5344 5345 5346 5347 5349 5351 5354 5356 5359 5362 5365 5368 5371 5373 5375 5377 5378 5380 5381 5382 5384 5386 5387 5389 5391 5392 5393
5327 5329 5325 5326 5330 5327 5325 5328 5330 5333 5338 5336 5332 5329 5330 5331 5331 5332 5334 5334 5335 5337 5339 5341 5343 5346 5349 5352 5355 5358 5361 5363 5364 5366 5367 5368 5369 5371 5373 5374 5376 5377 5379 5381
5334 5317 5317 5331 5325 5319 5319 5314 5317 5327 5330 5321 5321 5318 5318 5319 5319 5319 5320 5321 5321 5324 5325 5328 5330 5333 5337 5340 5343 5345 5348 5350 5352 5353 5355 5355 5357 5358 5360 5362 5363 5365 5367 5369
5321 5314 5319 5333 5307 5307 5306 5302 5299 5302 5306 5306 5304 5302 5302 5303 5304 5305 5307 5308 5310 5312 5314 5317 5319 5321 5324 5327 5331 5333 5335 5337 5339 5340 5342 5342 5344 5346 5348 5349 5351 5353 5354 5356
5312 5318 5326 5319 5301 5293 5293 5299 5292 5291 5292 5291 5289 5295 5300 5294 5292 5292 5294 5296 5298 5300 5303 5305 5308 5310 5313 5317 5319 5321 5323 5325 5327 5328 5330 5331 5332 5334 5335 5337 5338 5339 5341 5342
5301 5309 5317 5319 5292 5279 5282 5297 5287 5280 5279 5278 5280 5298 5301 5285 5282 5282 5283 5285 5287 5290 5292 5295 5297 5299 5303 5306 5308 5310 5311 5313 5314 5316 5318 5319 5320 5321 5322 5323 5325 5326 5327 5329
5295 5300 5310 5292 5275 5274 5290 5297 5279 5273 5270 5268 5271 5277 5275 5271 5272 5273 5274 5275 5277 5279 5282 5284 5286 5288 5291 5294 5296 5298 5299 5300 5302 5304 5306 5307 5308 5309 5310 5311 5312 5313 5314 5316
5285 5292 5300 5274 5268 5274 5279 5269 5265 5263 5260 5258 5259 5260 5260 5261 5262 5263 5264 5266 5268 5270 5272 5273 5275 5277 5281 5283 5284 5285 5287 5289 5290 5292 5293 5295 5296 5296 5297 5298 5299 5300 5301 5303
5282 5289 5275 5262 5262 5258 5254 5255 5256 5255 5252 5249 5249 5251 5252 5252 5253 5253 5255 5256 5257 5259 5261 5263 5264 5266 5269 5270 5272 5274 5275 5276 5278 5279 5280 5281 5283 5284 5285 5286 5287 5288 5290 5292
5263 5270 5262 5256 5251 5248 5245 5245 5245 5244 5243 5242 5241 5242 5243 5244 5244 5245 5245 5246 5247 5248 5250 5253 5253 5255 5256 5258 5259 5261 5263 5264 5265 5267 5268 5269 5270 5272 5273 5274 5276 5277 5278 5280
5256 5258 5253 5252 5248 5245 5241 5238 5236 5235 5234 5233 5233 5234 5235 5235 5236 5236 5236 5237 5237 5237 5239 5241 5242 5244 5245 5246 5248 5250 5251 5252 5253 5255 5256 5257 5258 5259 5261 5262 5264 5266 5267 5268
5265 5256 5250 5251 5244 5238 5234 5233 5230 5228 5228 5227 5225 5225 5226 5226 5226 5226 5226 5227 5227 5228 5229 5230 5231 5232 5234 5234 5236 5238 5240 5241 5242 5242 5243 5244 5246 5247 5247 5249 5250 5252 5254 5255
5243 5239 5237 5236 5232 5229 5227 5225 5223 5220 5219 5218 5217 5216 5216 5217 5216 5215 5216 5216 5217 5217 5218 5219 5220 5222 5223 5224 5225 5226 5228 5229 5230 5230 5231 5232 5233 5235 5237 5237 5238 5240 5241 5243
5230 5227 5228 5227 5224 5219 5216 5214 5212 5210 5209 5208 5207 5207 5207 5206 5206 5205 5206 5206 5207 5207 5208 5208 5210 5211 5212 5213 5214 5215 5216 5217 5219 5220 5220 5221 5221 5222 5224 5226 5227 5228 5229 5230
5223 5220 5218 5216 5213 5211 5208 5205 5203 5202 5201 5199 5197 5196 5196 5196 5196 5196 5196 5196 5197 5198 5198 5199 5200 5201 5201 5202 5203 5204 5206 5207 5207 5208 5209 5209 5210 5211 5212 5213 5214 5215 5216 5217
5215 5212 5209 5207 5206 5203 5200 5197 5196 5194 5192 5190 5189 5188 5187 5187 5186 5186 5186 5186 5187 5189 5189 5189 5190 5191 5192 5192 5193 5194 5195 5196 5197 5197 5198 5198 5198 5199 5200 5201 5202 5203 5204 5205
5205 5205 5203 5201 5199 5196 5193 5190 5188 5186 5184 5182 5181 5180 5179 5178 5178 5178 5178 5178 5178 5179 5179 5180 5181 5182 5182 5183 5184 5185 5185 5186 5186 5187 5187 5187 5188 5189 5190 5190 5191 5192 5193 5193
5197 5196 5194 5193 5191 5188 5185 5182 5180 5179 5177 5175 5173 5171 5170 5170 5170 5170 5170 5170 5170 5171 5171 5172 5173 5173 5173 5174 5174 5175 5175 5176 5176 5176 5176 5177 5177 5178 5179 5179 5180 5181 5181 5182
5189 5187 5185 5183 5181 5179 5177 5175 5173 5171 5170 5168 5166 5164 5163 5162 5162 5162 5162 5161 5162 5163 5164 5164 5164 5165 5165 5165 5165 5166 5166 5166 5166 5166 5166 5167 5167 5167 5168 5169 5169 5170 5171 5172
5182 5180 5178 5175 5173 5170 5169 5167 5166 5164 5163 5161 5159 5158 5156 5156 5155 5155 5154 5154 5156 5156 5156 5156 5156 5157 5157 5156 5156 5157 5157 5157 5157 5156 5156 5157 5157 5158 5158 5159 5160 5161 5162 5163
5174 5172 5170 5167 5165 5163 5161 5160 5158 5157 5155 5154 5153 5152 5150 5149 5148 5147 5148 5150 5150 5149 5149 5149 5149 5150 5149 5149 5148 5148 5148 5148 5148 5148 5148 5148 5148 5149 5150 5150 5151 5152 5154 5155
5165 5163 5161 5159 5157 5155 5153 5151 5150 5149 5148 5147 5146 5144 5143 5143 5143 5142 5141 5141 5142 5142 5142 5142 5142 5142 5142 5141 5141 5140 5140 5139 5139 5139 5139 5140 5140 5141 5142 5142 5143 5144 5146 5147
5156 5154 5152 5151 5149 5147 5145 5144 5142 5141 5140 5139 5138 5137 5137 5136 5136 5136 5136 5135 5134 5134 5135 5135 5134 5135 5135 5134 5133 5132 5132 5131 5131 5131 5132 5132 5133 5133 5134 5135 5136 5137 5138 5139
5148 5146 5144 5142 5140 5139 5138 5137 5135 5134 5132 5131 5131 5130 5129 5129 5129 5128 5127 5127 5127 5127 5127 5127 5127 5128 5127 5126 5126 5125 5125 5124 5124 5124 5125 5125 5126 5126 5127 5128 5129 5130 5131 5132
5140 5137 5135 5134 5133 5133 5131 5129 5128 5127 5126 5126 5125 5124 5122 5122 5121 5121 5119 5119 5119 5120 5119 5119 5119 5120 5119 5118 5118 5118 5118 5118 5118 5118 5119 5119 5119 5120 5121 5121 5122 5123 5124 5125
5132 5131 5129 5127 5126 5125 5123 5122 5121 5121 5120 5119 5119 5117 5116 5115 5113 5112 5112 5111 5111 5111 5111 5111 5111 5111 5111 5111 5111 5111 5111 5111 5111 5111 5112 5112 5113 5114 5114 5115 5116 5117 5118 5119
5125 5123 5121 5120 5119 5117 5115 5114 5114 5113 5112 5111 5110 5110 5108 5107 5106 5105 5105 5104 5104 5103 5104 5104 5104 5103 5103 5103 5104 5104 5104 5105 5105 5105 5106 5106 5107 5108 5109 5109 5110 5111 5112 5113